AB776 CYTZ-CYTS

Flight info

Callsign AB776
Flight time 1h 20m
Altitude 26000
Route IKLEN DCT TONNY DCT YTS
Aircraft PC12/L-SDFGRWY/S

Departure

Time 2026-05-07 00:19
Airport Billy Bishop Toronto City Airport (CYTZ)

Arrival

Time 2026-05-07 01:40
Airport Timmins/Victor M. Power (CYTS)
Time Latitude Longitude Altitude Speed Heading
2026-05-07 00:06 43.63029 -79.39791 253 ft 0 kts 75°
2026-05-07 00:14 43.63029 -79.39789 253 ft 1 kts 76°
2026-05-07 00:15 43.63032 -79.39736 253 ft 10 kts 109°
2026-05-07 00:15 43.63004 -79.39650 253 ft 11 kts 70°
2026-05-07 00:15 43.63027 -79.39555 253 ft 13 kts 71°
2026-05-07 00:16 43.63045 -79.39479 253 ft 15 kts 71°
2026-05-07 00:16 43.63078 -79.39344 253 ft 13 kts 71°
2026-05-07 00:16 43.63088 -79.39294 253 ft 3 kts 89°
2026-05-07 00:17 43.63079 -79.39226 254 ft 10 kts 74°
2026-05-07 00:17 43.63108 -79.39118 253 ft 12 kts 71°
2026-05-07 00:17 43.63127 -79.39040 253 ft 1 kts 71°
2026-05-07 00:17 43.63132 -79.39019 253 ft 4 kts 72°
2026-05-07 00:18 43.63121 -79.38958 253 ft 9 kts 139°
2026-05-07 00:18 43.63076 -79.38991 253 ft 9 kts 253°
2026-05-07 00:18 43.63039 -79.39143 255 ft 34 kts 251°
2026-05-07 00:18 43.62910 -79.39663 257 ft 79 kts 250°
2026-05-07 00:19 43.62702 -79.40446 451 ft 92 kts 250°
2026-05-07 00:19 43.62502 -79.41311 753 ft 97 kts 252°
2026-05-07 00:19 43.62129 -79.42080 1062 ft 104 kts 211°
2026-05-07 00:19 43.61357 -79.42109 1339 ft 128 kts 154°
2026-05-07 00:20 43.60619 -79.41325 1755 ft 140 kts 145°
2026-05-07 00:20 43.59762 -79.40472 2006 ft 172 kts 146°
2026-05-07 00:20 43.58799 -79.39484 2592 ft 170 kts 144°
2026-05-07 00:20 43.57847 -79.38485 3088 ft 173 kts 144°
2026-05-07 00:21 43.56885 -79.37472 3594 ft 175 kts 144°
2026-05-07 00:21 43.55916 -79.36453 4100 ft 176 kts 145°
2026-05-07 00:21 43.54938 -79.35426 4613 ft 177 kts 145°
2026-05-07 00:21 43.53957 -79.34394 5106 ft 178 kts 144°
2026-05-07 00:22 43.53314 -79.32952 5569 ft 182 kts 99°
2026-05-07 00:22 43.53568 -79.31290 6036 ft 180 kts 52°
2026-05-07 00:22 43.54550 -79.30347 6483 ft 172 kts
2026-05-07 00:22 43.55695 -79.30426 6924 ft 162 kts 332°
2026-05-07 00:23 43.56668 -79.31180 7362 ft 160 kts 322°
2026-05-07 00:23 43.57631 -79.31964 7836 ft 161 kts 323°
2026-05-07 00:23 43.58614 -79.32707 8333 ft 162 kts 324°
2026-05-07 00:23 43.59605 -79.33443 8821 ft 162 kts 323°
2026-05-07 00:24 43.60600 -79.34183 9313 ft 162 kts 322°
2026-05-07 00:24 43.61596 -79.34926 9797 ft 163 kts 322°
2026-05-07 00:24 43.62598 -79.35673 10211 ft 165 kts 321°
2026-05-07 00:24 43.63610 -79.36429 10626 ft 166 kts 321°
2026-05-07 00:25 43.64631 -79.37191 11052 ft 167 kts 321°
2026-05-07 00:25 43.65659 -79.37959 11473 ft 169 kts 320°
2026-05-07 00:25 43.66695 -79.38732 11881 ft 170 kts 320°
2026-05-07 00:25 43.67739 -79.39512 12295 ft 171 kts 320°
2026-05-07 00:26 43.68793 -79.40301 12692 ft 173 kts 319°
2026-05-07 00:26 43.69853 -79.41094 13093 ft 174 kts 319°
2026-05-07 00:26 43.70924 -79.41895 13554 ft 175 kts 319°
2026-05-07 00:26 43.72000 -79.42701 13998 ft 177 kts 319°
2026-05-07 00:27 43.73087 -79.43515 14400 ft 178 kts 318°
2026-05-07 00:27 43.74182 -79.44336 14793 ft 180 kts 318°
2026-05-07 00:27 43.75286 -79.45162 15186 ft 181 kts 318°
2026-05-07 00:27 43.76395 -79.45994 15573 ft 182 kts 318°
2026-05-07 00:28 43.77512 -79.46832 15951 ft 183 kts 317°
2026-05-07 00:28 43.78634 -79.47674 16334 ft 184 kts 317°
2026-05-07 00:28 43.79767 -79.48525 16712 ft 186 kts 317°
2026-05-07 00:28 43.80908 -79.49382 17091 ft 187 kts 317°
2026-05-07 00:29 43.82056 -79.50244 17475 ft 188 kts 317°
2026-05-07 00:29 43.83211 -79.51112 17855 ft 189 kts 317°
2026-05-07 00:30 43.86715 -79.53749 18881 ft 193 kts 316°
2026-05-07 00:30 43.87899 -79.54641 19200 ft 194 kts 316°
2026-05-07 00:30 43.89089 -79.55537 19523 ft 195 kts 316°
2026-05-07 00:30 43.90284 -79.56439 19844 ft 197 kts 316°
2026-05-07 00:31 43.91492 -79.57350 20163 ft 198 kts 316°
2026-05-07 00:31 43.92707 -79.58267 20479 ft 200 kts 316°
2026-05-07 00:31 43.93930 -79.59190 20796 ft 201 kts 316°
2026-05-07 00:31 43.95162 -79.60120 21092 ft 202 kts 316°
2026-05-07 00:32 43.96401 -79.61056 21396 ft 203 kts 315°
2026-05-07 00:32 43.97649 -79.61999 21720 ft 205 kts 315°
2026-05-07 00:32 43.98888 -79.62937 22017 ft 206 kts 315°
2026-05-07 00:32 44.00152 -79.63894 22301 ft 208 kts 315°
2026-05-07 00:33 44.01424 -79.64856 22593 ft 209 kts 315°
2026-05-07 00:33 44.02703 -79.65825 22883 ft 210 kts 315°
2026-05-07 00:33 44.03989 -79.66800 23176 ft 211 kts 314°
2026-05-07 00:33 44.05286 -79.67777 23466 ft 214 kts 316°
2026-05-07 00:34 44.06775 -79.68446 23691 ft 232 kts 329°
2026-05-07 00:34 44.08353 -79.68948 23949 ft 233 kts 330°
2026-05-07 00:34 44.09929 -79.69457 24203 ft 233 kts 330°
2026-05-07 00:34 44.11506 -79.69980 24452 ft 233 kts 329°
2026-05-07 00:35 44.13087 -79.70507 24704 ft 234 kts 329°
2026-05-07 00:35 44.14670 -79.71031 24955 ft 234 kts 329°
2026-05-07 00:35 44.16257 -79.71557 25202 ft 235 kts 330°
2026-05-07 00:35 44.17844 -79.72083 25460 ft 235 kts 330°
2026-05-07 00:36 44.19439 -79.72616 25690 ft 235 kts 329°
2026-05-07 00:36 44.21026 -79.73168 25929 ft 235 kts 329°
2026-05-07 00:36 44.22554 -79.73711 25963 ft 244 kts 329°
2026-05-07 00:36 44.24233 -79.74301 25980 ft 254 kts 330°
2026-05-07 00:37 44.25971 -79.74897 25980 ft 261 kts 330°
2026-05-07 00:37 44.27749 -79.75506 25980 ft 265 kts 330°
2026-05-07 00:37 44.29544 -79.76124 25985 ft 267 kts 331°
2026-05-07 00:37 44.31347 -79.76750 25982 ft 268 kts 330°
2026-05-07 00:38 44.33159 -79.77380 25985 ft 269 kts 330°
2026-05-07 00:38 44.34978 -79.78012 25987 ft 269 kts 330°
2026-05-07 00:38 44.36800 -79.78646 25984 ft 270 kts 330°
2026-05-07 00:38 44.38621 -79.79279 25983 ft 271 kts 330°
2026-05-07 00:39 44.40450 -79.79917 25984 ft 271 kts 330°
2026-05-07 00:39 44.42283 -79.80556 25986 ft 271 kts 330°
2026-05-07 00:39 44.44115 -79.81194 25983 ft 271 kts 330°
2026-05-07 00:39 44.45945 -79.81833 25985 ft 271 kts 330°
2026-05-07 00:40 44.47775 -79.82472 25982 ft 272 kts 330°
2026-05-07 00:40 44.49609 -79.83114 25984 ft 272 kts 330°
2026-05-07 00:40 44.51444 -79.83755 25983 ft 272 kts 330°
2026-05-07 00:40 44.53255 -79.84388 25982 ft 272 kts 330°
2026-05-07 00:41 44.55090 -79.85031 25984 ft 272 kts 330°
2026-05-07 00:41 44.56925 -79.85674 25985 ft 272 kts 330°
2026-05-07 00:41 44.58760 -79.86317 25986 ft 272 kts 330°
2026-05-07 00:41 44.60597 -79.86962 25987 ft 272 kts 330°
2026-05-07 00:42 44.62453 -79.87614 25984 ft 272 kts 330°
2026-05-07 00:42 44.63671 -79.88041 25983 ft 272 kts 330°
2026-05-07 00:42 44.66100 -79.88895 25985 ft 272 kts 329°
2026-05-07 00:42 44.67341 -79.89331 25984 ft 272 kts 329°
2026-05-07 00:43 44.69768 -79.90185 25982 ft 272 kts 329°
2026-05-07 00:43 44.71600 -79.90831 25985 ft 271 kts 329°
2026-05-07 00:43 44.73432 -79.91477 25984 ft 271 kts 329°
2026-05-07 00:43 44.74671 -79.91913 25984 ft 271 kts 329°
2026-05-07 00:44 44.76500 -79.92559 25980 ft 271 kts 329°
2026-05-07 00:44 44.78331 -79.93206 25980 ft 272 kts 329°
2026-05-07 00:44 44.80165 -79.93854 25984 ft 271 kts 329°
2026-05-07 00:44 44.81996 -79.94500 25982 ft 271 kts 329°
2026-05-07 00:45 44.83822 -79.95146 25986 ft 271 kts 329°
2026-05-07 00:45 44.85647 -79.95792 25985 ft 270 kts 329°
2026-05-07 00:45 44.87471 -79.96439 25982 ft 270 kts 328°
2026-05-07 00:45 44.89291 -79.97084 25981 ft 270 kts 328°
2026-05-07 00:46 44.91112 -79.97729 25980 ft 270 kts 328°
2026-05-07 00:46 44.92930 -79.98375 25979 ft 269 kts 328°
2026-05-07 00:46 44.94747 -79.99020 25981 ft 269 kts 328°
2026-05-07 00:46 44.96563 -79.99666 25979 ft 269 kts 328°
2026-05-07 00:47 44.98377 -80.00311 25979 ft 269 kts 328°
2026-05-07 00:47 45.00166 -80.00947 25977 ft 268 kts 328°
2026-05-07 00:47 45.02002 -80.01601 25981 ft 268 kts 328°
2026-05-07 00:47 45.03787 -80.02237 25979 ft 268 kts 328°
2026-05-07 00:48 45.05596 -80.02882 25975 ft 268 kts 327°
2026-05-07 00:48 45.07405 -80.03528 25975 ft 268 kts 327°
2026-05-07 00:48 45.09212 -80.04173 25976 ft 268 kts 327°
2026-05-07 00:48 45.11015 -80.04817 25974 ft 268 kts 327°
2026-05-07 00:49 45.12821 -80.05463 25977 ft 268 kts 327°
2026-05-07 00:49 45.14626 -80.06108 25974 ft 267 kts 327°
2026-05-07 00:49 45.16429 -80.06754 25970 ft 267 kts 327°
2026-05-07 00:49 45.18234 -80.07400 25973 ft 267 kts 327°
2026-05-07 00:50 45.20034 -80.08045 25971 ft 267 kts 327°
2026-05-07 00:50 45.21836 -80.08691 25971 ft 267 kts 327°
2026-05-07 00:50 45.23637 -80.09338 25974 ft 267 kts 327°
2026-05-07 00:50 45.25436 -80.09984 25970 ft 267 kts 327°
2026-05-07 00:51 45.27236 -80.10631 25972 ft 267 kts 327°
2026-05-07 00:51 45.29037 -80.11279 25972 ft 267 kts 327°
2026-05-07 00:51 45.30839 -80.11928 25965 ft 267 kts 327°
2026-05-07 00:51 45.32639 -80.12575 25968 ft 267 kts 327°
2026-05-07 00:52 45.34438 -80.13223 25969 ft 267 kts 327°
2026-05-07 00:52 45.36235 -80.13871 25970 ft 266 kts 327°
2026-05-07 00:52 45.38031 -80.14519 25970 ft 266 kts 327°
2026-05-07 00:52 45.39828 -80.15168 25965 ft 266 kts 327°
2026-05-07 00:53 45.41624 -80.15817 25969 ft 266 kts 327°
2026-05-07 00:53 45.43421 -80.16467 25967 ft 267 kts 328°
2026-05-07 00:53 45.45219 -80.17117 25970 ft 266 kts 328°
2026-05-07 00:53 45.47017 -80.17767 25968 ft 266 kts 328°
2026-05-07 00:54 45.48813 -80.18418 25962 ft 266 kts 328°
2026-05-07 00:54 45.50609 -80.19069 25964 ft 266 kts 328°
2026-05-07 00:54 45.52406 -80.19721 25967 ft 266 kts 328°
2026-05-07 00:54 45.54198 -80.20371 25964 ft 266 kts 328°
2026-05-07 00:55 45.55997 -80.21024 25969 ft 266 kts 328°
2026-05-07 00:55 45.57794 -80.21677 25964 ft 266 kts 328°
2026-05-07 00:55 45.59588 -80.22329 25958 ft 266 kts 328°
2026-05-07 00:55 45.61384 -80.22983 25961 ft 266 kts 328°
2026-05-07 00:56 45.63180 -80.23637 25962 ft 267 kts 328°
2026-05-07 00:56 45.64977 -80.24292 25949 ft 266 kts 328°
2026-05-07 00:56 45.66772 -80.24946 25962 ft 266 kts 328°
2026-05-07 00:56 45.68567 -80.25601 25963 ft 266 kts 329°
2026-05-07 00:57 45.70361 -80.26256 25951 ft 266 kts 329°
2026-05-07 00:57 45.72156 -80.26912 25957 ft 266 kts 329°
2026-05-07 00:57 45.73952 -80.27569 25959 ft 267 kts 329°
2026-05-07 00:57 45.75750 -80.28226 25953 ft 267 kts 329°
2026-05-07 00:58 45.77548 -80.28885 25955 ft 267 kts 330°
2026-05-07 00:58 45.79323 -80.29535 25955 ft 267 kts 330°
2026-05-07 00:58 45.81124 -80.30195 25956 ft 267 kts 330°
2026-05-07 00:58 45.82923 -80.30855 25957 ft 267 kts 330°
2026-05-07 00:59 45.86529 -80.32179 25956 ft 267 kts 331°
2026-05-07 00:59 45.88357 -80.32850 25952 ft 268 kts 331°
2026-05-07 00:59 45.90157 -80.33512 25956 ft 268 kts 331°
2026-05-07 01:00 45.91941 -80.34169 25955 ft 268 kts 331°
2026-05-07 01:00 45.93749 -80.34835 25949 ft 268 kts 332°
2026-05-07 01:00 45.95556 -80.35501 25952 ft 268 kts 332°
2026-05-07 01:00 45.97365 -80.36168 25950 ft 268 kts 332°
2026-05-07 01:01 45.99171 -80.36834 25953 ft 268 kts 332°
2026-05-07 01:01 46.00981 -80.37502 25950 ft 269 kts 333°
2026-05-07 01:01 46.02792 -80.38171 25949 ft 269 kts 333°
2026-05-07 01:01 46.04603 -80.38841 25947 ft 269 kts 333°
2026-05-07 01:02 46.06416 -80.39512 25945 ft 269 kts 333°
2026-05-07 01:02 46.08224 -80.40181 25949 ft 269 kts 333°
2026-05-07 01:02 46.10035 -80.40852 25952 ft 269 kts 333°
2026-05-07 01:02 46.11845 -80.41523 25947 ft 269 kts 334°
2026-05-07 01:03 46.13656 -80.42195 25945 ft 269 kts 334°
2026-05-07 01:03 46.15469 -80.42868 25946 ft 269 kts 334°
2026-05-07 01:03 46.17281 -80.43541 25943 ft 269 kts 334°
2026-05-07 01:03 46.19093 -80.44215 25947 ft 269 kts 334°
2026-05-07 01:04 46.20899 -80.44887 25945 ft 269 kts 334°
2026-05-07 01:04 46.22710 -80.45561 25946 ft 269 kts 334°
2026-05-07 01:04 46.24519 -80.46235 25941 ft 269 kts 334°
2026-05-07 01:04 46.26330 -80.46910 25944 ft 269 kts 334°
2026-05-07 01:05 46.28141 -80.47586 25941 ft 269 kts 334°
2026-05-07 01:05 46.29950 -80.48261 25943 ft 268 kts 335°
2026-05-07 01:05 46.31756 -80.48935 25945 ft 268 kts 335°
2026-05-07 01:05 46.33564 -80.49611 25937 ft 268 kts 335°
2026-05-07 01:06 46.35371 -80.50287 25938 ft 268 kts 335°
2026-05-07 01:06 46.37178 -80.50964 25935 ft 268 kts 335°
2026-05-07 01:06 46.38985 -80.51641 25935 ft 268 kts 335°
2026-05-07 01:06 46.40793 -80.52318 25930 ft 268 kts 335°
2026-05-07 01:07 46.42578 -80.52988 25924 ft 269 kts 335°
2026-05-07 01:07 46.44407 -80.53674 25924 ft 269 kts 335°
2026-05-07 01:07 46.46216 -80.54354 25920 ft 269 kts 335°
2026-05-07 01:07 46.48026 -80.55034 25919 ft 268 kts 335°
2026-05-07 01:08 46.49834 -80.55714 25913 ft 269 kts 335°
2026-05-07 01:08 46.51643 -80.56394 25914 ft 268 kts 335°
2026-05-07 01:08 46.53451 -80.57075 25910 ft 268 kts 336°
2026-05-07 01:08 46.55237 -80.57748 25911 ft 268 kts 336°
2026-05-07 01:09 46.57040 -80.58429 25907 ft 268 kts 336°
2026-05-07 01:09 46.58848 -80.59111 25906 ft 268 kts 336°
2026-05-07 01:09 46.60657 -80.59794 25904 ft 269 kts 336°
2026-05-07 01:09 46.62466 -80.60478 25904 ft 269 kts 336°
2026-05-07 01:10 46.64275 -80.61162 25890 ft 268 kts 336°
2026-05-07 01:10 46.66083 -80.61846 25909 ft 268 kts 336°
2026-05-07 01:10 46.67889 -80.62530 25911 ft 268 kts 336°
2026-05-07 01:10 46.69696 -80.63215 25911 ft 268 kts 336°
2026-05-07 01:11 46.71501 -80.63899 25912 ft 268 kts 336°
2026-05-07 01:11 46.73307 -80.64585 25911 ft 268 kts 336°
2026-05-07 01:11 46.75113 -80.65271 25916 ft 268 kts 336°
2026-05-07 01:11 46.76915 -80.65956 25915 ft 268 kts 336°
2026-05-07 01:12 46.78724 -80.66644 25916 ft 269 kts 336°
2026-05-07 01:12 46.80534 -80.67332 25918 ft 269 kts 336°
2026-05-07 01:12 46.82343 -80.68021 25920 ft 269 kts 336°
2026-05-07 01:12 46.84150 -80.68710 25922 ft 269 kts 336°
2026-05-07 01:13 46.85960 -80.69400 25923 ft 269 kts 336°
2026-05-07 01:13 46.87769 -80.70090 25926 ft 269 kts 336°
2026-05-07 01:13 46.89577 -80.70780 25927 ft 268 kts 337°
2026-05-07 01:13 46.91382 -80.71470 25926 ft 268 kts 337°
2026-05-07 01:14 46.93185 -80.72160 25926 ft 268 kts 337°
2026-05-07 01:14 46.94988 -80.72850 25929 ft 268 kts 337°
2026-05-07 01:14 46.96793 -80.73541 25930 ft 268 kts 337°
2026-05-07 01:14 46.98596 -80.74232 25930 ft 268 kts 337°
2026-05-07 01:15 47.00402 -80.74924 25932 ft 268 kts 337°
2026-05-07 01:15 47.02206 -80.75617 25930 ft 268 kts 337°
2026-05-07 01:15 47.04012 -80.76310 25930 ft 268 kts 337°
2026-05-07 01:15 47.05817 -80.77004 25929 ft 268 kts 337°
2026-05-07 01:16 47.07622 -80.77698 25929 ft 268 kts 337°
2026-05-07 01:16 47.09427 -80.78393 25932 ft 268 kts 337°
2026-05-07 01:16 47.11231 -80.79087 25930 ft 268 kts 337°
2026-05-07 01:16 47.13035 -80.79782 25930 ft 268 kts 337°
2026-05-07 01:17 47.14837 -80.80477 25931 ft 268 kts 337°
2026-05-07 01:17 47.16641 -80.81174 25930 ft 268 kts 338°
2026-05-07 01:17 47.18446 -80.81871 25929 ft 268 kts 338°
2026-05-07 01:17 47.20251 -80.82568 25930 ft 268 kts 338°
2026-05-07 01:18 47.22055 -80.83266 25929 ft 268 kts 338°
2026-05-07 01:18 47.23857 -80.83963 25933 ft 268 kts 338°
2026-05-07 01:18 47.25662 -80.84662 25932 ft 268 kts 338°
2026-05-07 01:18 47.27476 -80.85366 25708 ft 273 kts 338°
2026-05-07 01:19 47.29334 -80.86088 25336 ft 279 kts 339°
2026-05-07 01:19 47.31199 -80.86810 24969 ft 283 kts 339°
2026-05-07 01:19 47.33129 -80.87556 24601 ft 284 kts 339°
2026-05-07 01:19 47.35019 -80.88290 24244 ft 285 kts 339°
2026-05-07 01:20 47.36939 -80.89036 23887 ft 285 kts 339°
2026-05-07 01:20 47.38846 -80.89777 23531 ft 282 kts 340°
2026-05-07 01:20 47.40740 -80.90515 23112 ft 281 kts 340°
2026-05-07 01:20 47.42614 -80.91265 22690 ft 277 kts 336°
2026-05-07 01:21 47.44362 -80.92357 22358 ft 269 kts 328°
2026-05-07 01:21 47.46009 -80.93586 22137 ft 263 kts 328°
2026-05-07 01:21 47.47678 -80.94705 21920 ft 264 kts 331°
2026-05-07 01:21 47.49375 -80.95742 21704 ft 264 kts 332°
2026-05-07 01:22 47.51066 -80.96788 21492 ft 263 kts 331°
2026-05-07 01:22 47.52752 -80.97868 21279 ft 265 kts 331°
2026-05-07 01:22 47.54444 -80.98954 21066 ft 266 kts 331°
2026-05-07 01:22 47.56149 -81.00038 20863 ft 268 kts 332°
2026-05-07 01:23 47.57873 -81.01134 20652 ft 271 kts 332°
2026-05-07 01:23 47.59622 -81.02249 20271 ft 278 kts 332°
2026-05-07 01:23 47.61416 -81.03400 19860 ft 283 kts 332°
2026-05-07 01:23 47.63238 -81.04562 19460 ft 285 kts 333°
2026-05-07 01:24 47.65046 -81.05704 19063 ft 281 kts 333°
2026-05-07 01:24 47.66830 -81.06842 18669 ft 279 kts 333°
2026-05-07 01:24 47.68612 -81.07989 18284 ft 281 kts 333°
2026-05-07 01:24 47.70417 -81.09148 17847 ft 282 kts 333°
2026-05-07 01:25 47.72218 -81.10299 17404 ft 282 kts 333°
2026-05-07 01:25 47.74019 -81.11452 16971 ft 281 kts 333°
2026-05-07 01:25 47.75809 -81.12601 16539 ft 280 kts 333°
2026-05-07 01:25 47.77598 -81.13750 16120 ft 279 kts 334°
2026-05-07 01:26 47.79372 -81.14890 15694 ft 277 kts 334°
2026-05-07 01:26 47.81139 -81.16026 15285 ft 276 kts 334°
2026-05-07 01:26 47.82895 -81.17157 14874 ft 275 kts 334°
2026-05-07 01:26 47.84644 -81.18283 14471 ft 273 kts 334°
2026-05-07 01:27 47.86383 -81.19404 14076 ft 272 kts 334°
2026-05-07 01:27 47.88113 -81.20520 13676 ft 271 kts 334°
2026-05-07 01:27 47.89835 -81.21632 13230 ft 268 kts 334°
2026-05-07 01:27 47.91543 -81.22735 12793 ft 267 kts 334°
2026-05-07 01:28 47.93241 -81.23833 12360 ft 266 kts 335°
2026-05-07 01:28 47.94934 -81.24928 11933 ft 265 kts 335°
2026-05-07 01:28 47.96619 -81.26019 11509 ft 264 kts 335°
2026-05-07 01:28 47.98299 -81.27108 11096 ft 262 kts 335°
2026-05-07 01:29 47.99408 -81.27826 10828 ft 262 kts 335°
2026-05-07 01:29 48.01073 -81.28907 10425 ft 260 kts 335°
2026-05-07 01:29 48.02729 -81.29981 10020 ft 258 kts 335°
2026-05-07 01:29 48.04904 -81.31394 9457 ft 256 kts 335°
2026-05-07 01:30 48.06535 -81.32454 9009 ft 255 kts 335°
2026-05-07 01:30 48.07630 -81.33166 8720 ft 254 kts 335°
2026-05-07 01:30 48.09250 -81.34221 8291 ft 253 kts 335°
2026-05-07 01:30 48.10859 -81.35268 7870 ft 252 kts 335°
2026-05-07 01:31 48.12464 -81.36315 7448 ft 251 kts 334°
2026-05-07 01:31 48.14060 -81.37356 7058 ft 248 kts 334°
2026-05-07 01:31 48.15632 -81.38380 6727 ft 244 kts 334°
2026-05-07 01:31 48.17178 -81.39390 6396 ft 241 kts 334°
2026-05-07 01:32 48.18706 -81.40389 6110 ft 237 kts 334°
2026-05-07 01:32 48.20210 -81.41373 5892 ft 234 kts 334°
2026-05-07 01:32 48.21698 -81.42347 5678 ft 233 kts 334°
2026-05-07 01:32 48.23179 -81.43317 5462 ft 233 kts 334°
2026-05-07 01:33 48.24427 -81.43927 5287 ft 234 kts 347°
2026-05-07 01:33 48.26047 -81.44197 5074 ft 235 kts 352°
2026-05-07 01:33 48.27656 -81.44437 5035 ft 229 kts 351°
2026-05-07 01:33 48.29238 -81.44686 5035 ft 228 kts 351°
2026-05-07 01:34 48.30818 -81.44938 4992 ft 229 kts 351°
2026-05-07 01:34 48.32395 -81.45184 4769 ft 228 kts 351°
2026-05-07 01:34 48.33979 -81.45431 4501 ft 229 kts 352°
2026-05-07 01:34 48.35568 -81.45682 4229 ft 230 kts 352°
2026-05-07 01:35 48.37158 -81.45933 3963 ft 230 kts 352°
2026-05-07 01:35 48.38746 -81.46183 3698 ft 229 kts 352°
2026-05-07 01:35 48.40321 -81.46334 3427 ft 220 kts
2026-05-07 01:35 48.41728 -81.45866 3154 ft 198 kts 17°
2026-05-07 01:36 48.43017 -81.45143 2889 ft 199 kts 19°
2026-05-07 01:36 48.44284 -81.44453 2813 ft 191 kts 18°
2026-05-07 01:36 48.45474 -81.43801 2804 ft 170 kts 18°
2026-05-07 01:36 48.46536 -81.43213 2795 ft 161 kts 18°
2026-05-07 01:37 48.47598 -81.42636 2795 ft 163 kts 18°
2026-05-07 01:37 48.48678 -81.42048 2695 ft 169 kts 18°
2026-05-07 01:37 48.49740 -81.41456 2474 ft 157 kts 18°
2026-05-07 01:37 48.50701 -81.40928 2273 ft 144 kts 18°
2026-05-07 01:38 48.51561 -81.40457 2078 ft 128 kts 18°
2026-05-07 01:38 48.52326 -81.40033 1879 ft 104 kts 17°
2026-05-07 01:38 48.52967 -81.39686 1724 ft 95 kts 17°
2026-05-07 01:38 48.53611 -81.39341 1583 ft 102 kts 16°
2026-05-07 01:39 48.54283 -81.38972 1463 ft 103 kts 20°
2026-05-07 01:39 48.54959 -81.38596 1307 ft 104 kts 17°
2026-05-07 01:39 48.55633 -81.38229 1146 ft 101 kts 18°
2026-05-07 01:39 48.56252 -81.37887 1000 ft 94 kts 17°
2026-05-07 01:40 48.56799 -81.37587 964 ft 72 kts 18°
2026-05-07 01:40 48.57135 -81.37395 965 ft 29 kts 18°
2026-05-07 01:40 48.57244 -81.37317 964 ft 12 kts 354°
2026-05-07 01:40 48.57216 -81.37359 964 ft 9 kts 197°
2026-05-07 01:41 48.57161 -81.37386 966 ft 8 kts 198°
2026-05-07 01:41 48.57113 -81.37411 963 ft 5 kts 199°
2026-05-07 01:41 48.57054 -81.37442 966 ft 15 kts 199°
2026-05-07 01:41 48.56958 -81.37442 964 ft 12 kts 147°
2026-05-07 01:42 48.56886 -81.37366 966 ft 13 kts 142°
2026-05-07 01:42 48.56798 -81.37313 966 ft 14 kts 178°
2026-05-07 01:42 48.56707 -81.37356 964 ft 11 kts 201°
2026-05-07 01:42 48.56649 -81.37374 963 ft 8 kts 146°
2026-05-07 01:43 48.56628 -81.37309 966 ft 2 kts 112°
2026-05-07 01:43 48.56628 -81.37308 966 ft 0 kts 112°